• In Belarus
  • List of Countries
  • For 7 days
  • Water Temperature
  • Satellite Maps
  • Weather Map
  • Weather Widgets
  • user-avatar
    Login

    Hourly Weather Vejle

    Today, 20 September, Thursday

    Time Temperature Precipitation Wind Pressure Humidity
    00:00 +17°C° 0.1 mm 7 mps 751 mmHg 82%
    01:00 +16°C° 0 mm 6 mps 750 mmHg 85%
    02:00 +16°C° 0 mm 6 mps 751 mmHg 86%
    03:00 +15°C° 0 mm 5 mps 751 mmHg 86%
    04:00 +15°C° 0 mm 5 mps 751 mmHg 87%
    05:00 +15°C° 0 mm 5 mps 751 mmHg 86%
    06:00 +15°C° 0 mm 5 mps 751 mmHg 86%
    07:00 +15°C° 0 mm 5 mps 751 mmHg 86%
    08:00 +15°C° 0.1 mm 6 mps 751 mmHg 83%
    09:00 +16°C° 0.1 mm 6 mps 751 mmHg 80%
    10:00 +16°C° 0.1 mm 6 mps 752 mmHg 77%
    11:00 +15°C° 0.4 mm 5 mps 752 mmHg 80%
    12:00 +15°C° 0.4 mm 5 mps 751 mmHg 84%
    13:00 +14°C° 0.4 mm 4 mps 751 mmHg 87%
    14:00 +14°C° 0.4 mm 4 mps 751 mmHg 88%
    15:00 +14°C° 0.4 mm 3 mps 751 mmHg 88%
    16:00 +14°C° 0.4 mm 3 mps 751 mmHg 88%
    17:00 +14°C° 0.1 mm 3 mps 750 mmHg 90%
    18:00 +14°C° 0.1 mm 3 mps 750 mmHg 91%
    19:00 +14°C° 0.1 mm 3 mps 750 mmHg 92%
    20:00 +15°C° 0 mm 4 mps 749 mmHg 91%
    21:00 +15°C° 0 mm 5 mps 748 mmHg 90%
    22:00 +15°C° 0 mm 6 mps 747 mmHg 90%
    23:00 +16°C° 0 mm 6 mps 746 mmHg 88%

    Tomorrow, 21 September, Friday

    Time Temperature Precipitation Wind Pressure Humidity
    00:00 +16°C° 0 mm 7 mps 746 mmHg 86%
    01:00 +16°C° 0 mm 7 mps 745 mmHg 84%
    02:00 +16°C° 0 mm 7 mps 744 mmHg 83%
    03:00 +16°C° 0 mm 8 mps 743 mmHg 82%
    04:00 +16°C° 0 mm 8 mps 743 mmHg 81%
    05:00 +17°C° 0 mm 8 mps 742 mmHg 80%
    06:00 +17°C° 0 mm 8 mps 741 mmHg 78%
    07:00 +17°C° 0 mm 9 mps 740 mmHg 76%
    08:00 +17°C° 0.4 mm 10 mps 739 mmHg 76%
    09:00 +17°C° 0.4 mm 11 mps 739 mmHg 76%
    10:00 +17°C° 0.4 mm 11 mps 738 mmHg 76%
    11:00 +15°C° 0.4 mm 12 mps 738 mmHg 73%
    12:00 +14°C° 0.4 mm 13 mps 739 mmHg 71%
    13:00 +13°C° 0.4 mm 13 mps 739 mmHg 69%
    14:00 +12°C° 0.3 mm 13 mps 740 mmHg 68%
    15:00 +12°C° 0.3 mm 12 mps 741 mmHg 68%
    16:00 +11°C° 0.3 mm 11 mps 742 mmHg 68%
    17:00 +11°C° 0.2 mm 10 mps 742 mmHg 69%
    18:00 +9°C° 0.2 mm 10 mps 743 mmHg 70%
    19:00 +10°C° 0.2 mm 9 mps 743 mmHg 71%
    20:00 +10°C° 0.2 mm 9 mps 743 mmHg 73%
    21:00 +9°C° 0.2 mm 8 mps 744 mmHg 75%
    22:00 +9°C° 0.2 mm 7 mps 744 mmHg 76%
    23:00 +9°C° 0.1 mm 7 mps 745 mmHg 76%

    Day after tomorrow, 22 September, Saturday

    Time Temperature Precipitation Wind Pressure Humidity
    00:00 +9°C° 0.1 mm 7 mps 745 mmHg 76%
    01:00 +9°C° 0.1 mm 7 mps 746 mmHg 76%
    02:00 +9°C° 0 mm 7 mps 747 mmHg 75%
    03:00 +9°C° 0 mm 7 mps 747 mmHg 74%
    04:00 +9°C° 0 mm 7 mps 748 mmHg 73%
    05:00 +9°C° 0 mm 6 mps 748 mmHg 74%
    06:00 +9°C° 0 mm 6 mps 749 mmHg 75%
    07:00 +9°C° 0 mm 6 mps 749 mmHg 76%
    08:00 +10°C° 0.4 mm 7 mps 749 mmHg 73%
    09:00 +11°C° 0.4 mm 8 mps 749 mmHg 70%
    10:00 +12°C° 0.4 mm 9 mps 750 mmHg 67%
    11:00 +12°C° 0.3 mm 9 mps 750 mmHg 66%
    12:00 +13°C° 0.3 mm 10 mps 750 mmHg 64%
    13:00 +13°C° 0.3 mm 10 mps 750 mmHg 63%
    14:00 +12°C° 0.2 mm 10 mps 750 mmHg 65%
    15:00 +12°C° 0.2 mm 9 mps 751 mmHg 67%
    16:00 +12°C° 0.2 mm 9 mps 751 mmHg 69%
    17:00 +11°C° 0.1 mm 8 mps 751 mmHg 71%
    18:00 +10°C° 0.1 mm 7 mps 752 mmHg 72%
    19:00 +9°C° 0.1 mm 7 mps 752 mmHg 74%
    20:00 +9°C° 0 mm 6 mps 752 mmHg 74%
    21:00 +9°C° 0 mm 6 mps 752 mmHg 74%
    22:00 +9°C° 0 mm 6 mps 752 mmHg 74%
    23:00 +8°C° 0 mm 5 mps 752 mmHg 75%

    23 September, Sunday

    Time Temperature Precipitation Wind Pressure Humidity
    00:00 +8°C° 0 mm 5 mps 752 mmHg 76%
    01:00 +8°C° 0 mm 5 mps 752 mmHg 76%
    02:00 +8°C° 0 mm 4 mps 752 mmHg 77%
    03:00 +8°C° 0 mm 4 mps 752 mmHg 77%
    04:00 +8°C° 0 mm 4 mps 751 mmHg 77%
    05:00 +9°C° 0 mm 3 mps 751 mmHg 77%
    06:00 +9°C° 0 mm 3 mps 751 mmHg 77%
    07:00 +9°C° 0 mm 2 mps 751 mmHg 78%
    08:00 +10°C° 0 mm 2 mps 751 mmHg 72%
    09:00 +12°C° 0 mm 2 mps 751 mmHg 66%
    10:00 +13°C° 0 mm 2 mps 750 mmHg 61%
    11:00 +13°C° 0.1 mm 2 mps 750 mmHg 60%
    12:00 +13°C° 0.1 mm 2 mps 749 mmHg 60%
    13:00 +13°C° 0.1 mm 2 mps 749 mmHg 60%
    14:00 +13°C° 0.1 mm 2 mps 748 mmHg 63%
    15:00 +12°C° 0.1 mm 2 mps 748 mmHg 66%
    16:00 +11°C° 0.1 mm 3 mps 747 mmHg 69%
    17:00 +10°C° 0.1 mm 3 mps 747 mmHg 70%
    18:00 +10°C° 0.1 mm 4 mps 747 mmHg 70%
    19:00 +8°C° 0.1 mm 4 mps 746 mmHg 71%
    20:00 +8°C° 0 mm 5 mps 747 mmHg 71%
    21:00 +8°C° 0 mm 5 mps 747 mmHg 72%
    22:00 +8°C° 0 mm 6 mps 747 mmHg 72%
    23:00 +8°C° 0 mm 6 mps 748 mmHg 70%

    24 September, Monday

    Time Temperature Precipitation Wind Pressure Humidity
    00:00 +8°C° 0 mm 7 mps 748 mmHg 68%
    01:00 +7°C° 0 mm 8 mps 748 mmHg 66%
    02:00 +7°C° 0 mm 8 mps 749 mmHg 66%
    03:00 +7°C° 0 mm 8 mps 750 mmHg 65%
    04:00 +7°C° 0 mm 9 mps 751 mmHg 65%
    05:00 +7°C° 0.1 mm 8 mps 753 mmHg 67%
    06:00 +8°C° 0.1 mm 7 mps 754 mmHg 69%
    07:00 +6°C° 0.1 mm 7 mps 755 mmHg 70%
    08:00 +8°C° 0 mm 7 mps 756 mmHg 66%
    09:00 +9°C° 0 mm 7 mps 757 mmHg 61%
    10:00 +10°C° 0 mm 7 mps 758 mmHg 56%
    11:00 +11°C° 0.1 mm 8 mps 758 mmHg 56%
    12:00 +11°C° 0.1 mm 8 mps 759 mmHg 57%
    13:00 +11°C° 0.1 mm 9 mps 759 mmHg 57%
    14:00 +11°C° 0.1 mm 8 mps 759 mmHg 58%
    15:00 +10°C° 0.1 mm 8 mps 760 mmHg 59%
    16:00 +10°C° 0.1 mm 8 mps 760 mmHg 60%
    17:00 +9°C° 0 mm 7 mps 760 mmHg 63%
    18:00 +9°C° 0 mm 6 mps 760 mmHg 67%
    19:00 +8°C° 0 mm 6 mps 761 mmHg 71%
    20:00 +8°C° 0 mm 6 mps 761 mmHg 72%
    21:00 +8°C° 0 mm 6 mps 761 mmHg 74%
    22:00 +7°C° 0 mm 5 mps 761 mmHg 76%
    23:00 +8°C° 0 mm 6 mps 761 mmHg 77%

    25 September, Tuesday

    Time Temperature Precipitation Wind Pressure Humidity
    00:00 +8°C° 0 mm 6 mps 760 mmHg 78%
    01:00 +8°C° 0 mm 6 mps 760 mmHg 79%
    02:00 +9°C° 0.6 mm 7 mps 760 mmHg 79%
    03:00 +9°C° 0.6 mm 8 mps 759 mmHg 79%
    04:00 +8°C° 0.6 mm 9 mps 759 mmHg 80%
    05:00 +9°C° 0.3 mm 8 mps 759 mmHg 79%
    06:00 +8°C° 0.3 mm 7 mps 759 mmHg 78%
    07:00 +8°C° 0.3 mm 7 mps 759 mmHg 77%
    08:00 +9°C° 0 mm 8 mps 760 mmHg 73%
    09:00 +10°C° 0 mm 8 mps 760 mmHg 69%
    10:00 +11°C° 0 mm 9 mps 761 mmHg 65%
    11:00 +12°C° 0 mm 9 mps 761 mmHg 64%
    12:00 +12°C° 0 mm 9 mps 761 mmHg 63%
    13:00 +12°C° 0 mm 9 mps 762 mmHg 61%
    14:00 +12°C° 0 mm 8 mps 762 mmHg 63%
    15:00 +12°C° 0 mm 8 mps 762 mmHg 65%
    16:00 +12°C° 0 mm 7 mps 762 mmHg 66%
    17:00 +11°C° 0 mm 6 mps 762 mmHg 72%
    18:00 +10°C° 0 mm 5 mps 763 mmHg 78%
    19:00 +10°C° 0 mm 4 mps 763 mmHg 84%
    20:00 +10°C° 0 mm 4 mps 763 mmHg 86%
    21:00 +10°C° 0 mm 4 mps 764 mmHg 88%
    22:00 +10°C° 0 mm 4 mps 764 mmHg 90%
    23:00 +10°C° 0 mm 4 mps 764 mmHg 89%
    Show more